Find Starlink 31726

NORAD ID: 59739 Int'l Des: 2024-090 Owner: SPXS Country: US Constellation: starlink operational
LEOCIRCULAR

Live Position

Loading 3D Globe...

About Starlink 31726

Description loading...

Upcoming Passes

Passes for default location (London). Set your location on the main map for personalized predictions.

Altitude History

Loading altitude history...

Two-Line Element Set

1 59739U 24090K 26121.71764544 .00001416 00000-0 60950-4 0 9994
2 59739 43.0011 243.7164 0000929 257.4130 102.6618 15.27582846111558
Epoch: May 1, 2026 • Age: 9 hours

Current Status

Altitude 495.6 km
Velocity 7.62 km/s
Sub-Earth Point -42.68°S, 92.12°W
Launch Date May 13, 2024
Age 1.9 years
Type internet

Technical Details

Classification Payload
Mass 730.00 kg
Dry Mass 700.00 kg
Total Mass 730.00 kg
Length 0.30 m
Diameter 4.10 m
Span 29.00 m
Shape Box + pan
Manufacturer SPXS
Bus Type Starlink V2M
Phase Status In Orbit
Owner/State SPXS/US

Most Searched